Regional Weather Roundup
Issued by NWS State College, PA

Home | Current Version | Previous Version | Graphics & Text | Print | Product List | Glossary Off
Versions: 1 2 3 4 5 6 7 8 9 10 11 12 13 14 15 16 17 18 19 20 21 22 23 24 25 26 27 28 29 30 31 32 33 34 35 36 37 38 39 40 41 42 43 44 45 46 47 48 49 50

000
ASUS41 KCTP 160010
RWRCTP

REGIONAL WEATHER ROUNDUP
NATIONAL WEATHER SERVICE STATE COLLEGE PA
800 PM EDT TUE APR 15 2014

Note: "fair" indicates few or no clouds below 12,000 feet with no
significant weather and/or obstructions to visibility.

* = STATION THAT DOES NOT REPORT PRECIPITATION /E.G. RAIN...SNOW...ETC/
    THUNDER OR FOG.

PAZ002>004-007>009-013>016-020>023-029>032-160100-
WESTERN PENNSYLVANIA

CITY           SKY/WX    TMP DP  RH WIND       PRES   REMARKS
ERIE           FLURRIES  28  19  69 NW12      30.08R
MEADVILLE      NOT AVBL
FRANKLIN*      CLOUDY    27  16  63 NW10G17   30.03R
NEW CASTLE     FLURRIES  27  19  71 W9        30.09R
BEAVER COUNTY  CLOUDY    28  21  74 NW14G20   30.06
BUTLER*        CLOUDY    28  18  64 W12       30.06R
PITTSBURGH INT FLURRIES  29  23  78 NW16      30.05R
PITTSBURGH     LGT SNOW  30  19  64 NW17G28   30.04R
INDIANA*       CLOUDY    28  21  74 NW13G24   30.02R
LATROBE        MOCLDY    32  25  74 NW12      30.05R
WASHINGTON CO* CLOUDY    30  19  64 W10G17    30.08R
$$

PAZ004>006-010>012-017>019-024>028-033>037-041-042-045-046-049>053-160100-
CENTRAL PENNSYLVANIA

CITY           SKY/WX    TMP DP  RH WIND       PRES   REMARKS
BRADFORD       CLOUDY    24  15  68 NW17G28   29.91R WCI  11
DUBOIS         FLURRIES  28  19  69 W14G28    29.96R
CLEARFIELD     FLURRIES  30  19  63 NW13      29.97R
JOHNSTOWN      LGT SNOW  25  21  85 NW17G25   29.92R FOG     WCI  12
ALTOONA        CLOUDY    32  23  69 NW21G30   29.93R
STATE COLLEGE  CLOUDY    34  19  55 NW17G26   29.94R
WILLIAMSPORT   CLOUDY    35  30  82 W12       29.90R
SELINSGROVE    CLOUDY    38  31  76 NW9       29.89R
FT INDIANTOWN  LGT RAIN  37  37  99 NW10G21   29.88R
CAPITAL CITY   LGT RAIN  37  34  89 NW8       29.89R
HARRISBURG     LGT RAIN  38  33  82 NW16G23   29.88R
YORK           LGT RAIN  37  34  89 NW10G18   29.87R
$$

PAZ038>040-043-044-047-048-054-055-060>062-067>071-160100-
EASTERN PENNSYLVANIA

CITY           SKY/WX    TMP DP  RH WIND       PRES   REMARKS
SCRANTON       SNOW      33  31  92 NW21G30   29.84R VSB 1/2
MOUNT POCONO   LGT SNOW  32  29  88 NW16G23   29.75R FOG
ALLENTOWN      LGT RAIN  39  33  79 NW16      29.82R
QUAKERTOWN*    CLOUDY    39  36  87 NW10G20   29.82R
READING        LGT RAIN  41  36  82 NW14      29.84R
LANCASTER      LGT RAIN  37  34  89 NW13      29.86R
COATESVILLE    NOT AVBL
POTTSTOWN      RAIN      40  37  89 NW10      29.84R
BLUE BELL      CLOUDY    43  39  87 NW9       29.78R
DOYLESTOWN     LGT RAIN  40  38  93 N9G28     29.80R
WILLOW GROVE   NOT AVBL
NORTH PHILA    LGT RAIN  45  38  76 N20G29    29.80R
PHILADELPHIA   LGT RAIN  46  39  76 NW21G28   29.80R
$$



USA.gov is the U.S. government's official web portal to all federal, state and local government web resources and services.